PRISM
1 33493U 09002B 21224.44799925 .00001113 00000-0 10016-3 0 9990
2 33493 98.1923 189.7051 0016586 101.0669 259.2418 14.97770009682704
NOAA-19
1 33591U 09005A 21224.58247974 .00000036 00000-0 44825-4 0 9998
2 33591 99.1815 246.6725 0013488 339.1457 20.9162 14.12488807644843
SRMSAT
1 37841U 11058D 21224.57863898 .00000302 00000-0 20528-4 0 9999
2 37841 19.9731 321.8571 0011733 190.0136 196.3217 14.10700650507574
HRBE
1 37855U 11061F 21224.42674750 .00001117 00000-0 60966-4 0 9994
2 37855 101.7134 176.8690 0165587 264.1539 94.0778 15.07999468534618
RS-40
1 38735U 12041C 21224.47260438 .00000015 00000-0 41021-4 0 9997
2 38735 82.4759 98.1705 0017107 327.7379 32.2659 12.42583337410142
ZACUBE-1
1 39417U 13066B 21224.43961520 .00000268 00000-0 39769-4 0 9995
2 39417 97.5965 205.8771 0058012 339.1713 20.7137 14.81564178417366
GOMX-1
1 39430U 13066Q 21224.46990401 .00000208 00000-0 46985-4 0 9995
2 39430 97.8126 144.3215 0149370 298.9135 59.7134 14.59653610411213
LO-74
1 39440U 13066AA 21224.43845660 .00000256 00000-0 42099-4 0 9994
2 39440 97.6803 191.0337 0081127 54.5185 306.3561 14.76284940414688
AO-73
1 39444U 13066AE 21224.45678431 .00000330 00000-0 46403-4 0 9996
2 39444 97.5869 208.2675 0056812 329.0819 30.7054 14.82482444415734
SPROUT
1 39770U 14029E 21224.54058262 .00000860 00000-0 98402-4 0 9996
2 39770 97.9198 335.7829 0009679 31.0429 329.1356 14.88561408391689
DTUSAT-2
1 40030U 14033W 21224.53337791 .00000280 00000-0 35686-4 0 9999
2 40030 97.9151 151.7686 0011827 358.1663 1.9509 14.89042917387665
EO-80
1 40032U 14033Y 21224.56536222 .00000269 00000-0 34616-4 0 9993
2 40032 97.9156 151.8080 0011770 358.9270 1.1919 14.89001441387642
HODOYOSHI-1
1 40299U 14070B 21224.48313367 .00000870 00000-0 37776-4 0 9991
2 40299 97.2837 296.5435 0013794 144.4404 335.6197 15.24845683375950
FIREBIRD FU3
1 40377U 15003B 21224.54094477 .00001707 00000-0 64790-4 0 9996
2 40377 99.1070 17.5606 0116160 345.3839 14.4043 15.22851440361327
FIREBIRD FU4
1 40378U 15003C 21224.38402609 .00001587 00000-0 60418-4 0 9998
2 40378 99.1078 17.5206 0116203 345.7105 14.0848 15.22903981361305
GRIFEX
1 40379U 15003D 21224.35707366 .00001296 00000-0 55456-4 0 9997
2 40379 99.1030 6.3175 0127756 19.5718 341.0351 15.18394582360662
NO-84
1 40654U 15025D 21223.38348094 .00026609 00000-0 16128-3 0 1098
2 40654 54.9772 141.4839 0065135 208.5833 151.1636 15.74400310 15693
XW-2A
1 40903U 15049E 21224.44475147 .00003087 00000-0 65551-4 0 9996
2 40903 97.2317 278.7568 0012683 162.8543 322.5582 15.45730004331440
XW-2C
1 40906U 15049H 21224.51511263 .00000800 00000-0 44008-4 0 9991
2 40906 97.4860 226.1717 0014580 359.8704 156.4654 15.16866426326068
XW-2D
1 40907U 15049J 21224.49626313 .00000983 00000-0 52786-4 0 9996
2 40907 97.4858 225.9679 0013734 356.9573 154.1054 15.17204413326097
LILACSAT-2
1 40908U 15049K 21224.51609505 .00000528 00000-0 32182-4 0 9997
2 40908 97.5054 223.7503 0015947 12.2561 108.8941 15.14514056325719
XW-2E
1 40909U 15049L 21224.48974882 .00001609 00000-0 78364-4 0 9990
2 40909 97.4670 230.0432 0012464 343.1552 168.9303 15.19747189326442
XW-2F
1 40910U 15049M 21224.51322144 .00001490 00000-0 73842-4 0 9998
2 40910 97.4728 229.1484 0013644 342.0817 179.4390 15.19246599326236
XW-2B
1 40911U 15049N 21224.50219127 .00000918 00000-0 49654-4 0 9992
2 40911 97.4851 226.6472 0013657 357.9678 153.3108 15.17119246325982
DCBB
1 40912U 15049P 21224.48227047 .00001813 00000-0 82810-4 0 9996
2 40912 97.4444 233.4977 0012876 311.5584 209.7103 15.21815314326718
TW-1A
1 40928U 15051D 21224.52504214 .00004835 00000-0 99010-4 0 9992
2 40928 97.0737 248.0937 0011347 89.1389 65.7775 15.46492749330357
IO-86
1 40931U 15052B 21224.46657561 .00000661 00000-0 29145-5 0 9990
2 40931 5.9988 212.9080 0012688 115.8793 244.2687 14.76684050317598
ATHENOXAT-1
1 41168U 15077C 21224.60812576 .00002586 00000-0 95118-4 0 9995
2 41168 14.9865 208.0823 0010840 237.7601 270.6319 15.15928441313316
ChubuSat-2
1 41338U 16012B 21224.27782265 .00000376 00000-0 22322-4 0 9990
2 41338 31.0017 190.9126 0013593 326.5423 33.4353 15.00570798300991
ChubuSat-3
1 41339U 16012C 21224.22892918 .00000352 00000-0 20387-4 0 9996
2 41339 31.0103 188.3955 0013538 334.1678 25.8271 15.00715259300981
Horyu-4
1 41340U 16012D 21224.17856240 .00000599 00000-0 38053-4 0 9992
2 41340 31.0038 171.5905 0013608 6.0002 354.0795 15.01959900301177
e-st@r-II
1 41459U 16025D 21224.60900960 .00001506 00000-0 76978-4 0 9991
2 41459 98.1482 4.1897 0158426 233.0295 125.6350 15.08308625290883
AAUSAT4
1 41460U 16025E 21224.38918196 .00004218 00000-0 19687-3 0 9994
2 41460 98.1492 8.1219 0145413 216.5026 142.6226 15.11520590291162
LO-87
1 41557U 16033B 21224.53312340 .00001891 00000-0 68180-4 0 9993
2 41557 97.3953 318.1691 0013818 41.8124 84.8609 15.29717388290108
NuSat2
1 41558U 16033C 21224.45804199 .00001959 00000-0 66205-4 0 9994
2 41558 97.4072 322.1753 0012568 36.5438 93.7663 15.31812862290291
Lapan A3
1 41603U 16040E 21224.42100772 .00000161 00000-0 10506-4 0 9993
2 41603 97.2515 269.2158 0013759 159.5934 325.5741 15.20072243285085
Pratham
1 41783U 16059A 21224.54187770 .00000049 00000-0 18437-4 0 9994
2 41783 97.9601 272.7134 0034840 70.1159 290.3793 14.63157200260454
TY-1
1 41844U 16066D 21224.53920068 .00001222 00000-0 50371-4 0 9991
2 41844 97.3981 234.1781 0012929 304.0994 213.3115 15.25953521264453
CAS-2T
1 41847U 16066G 21224.41119920 .00000090 00000-0 23127-4 0 9999
2 41847 98.5972 283.7586 0366019 53.4835 309.9478 14.38223774249925
EO-88
1 42017U 17008BX 21224.47437883 .00001908 00000-0 71467-4 0 9992
2 42017 97.3120 291.0723 0004162 267.6539 92.4225 15.28494864249812
CAS-4B
1 42759U 17034B 21224.45688145 .00000192 00000-0 24793-4 0 9995
2 42759 43.0170 233.1748 0007413 161.3644 351.3338 15.10303465229616
CAS-4A
1 42761U 17034D 21224.44408104 .00000265 00000-0 29140-4 0 9994
2 42761 43.0163 232.2575 0007905 163.2221 346.6255 15.10391708229619
NIUSat
1 42766U 17036B 21224.49645772 .00001190 00000-0 53493-4 0 9996
2 42766 97.2461 268.5174 0014300 345.0953 14.9861 15.22930002229743
Aalto 1
1 42775U 17036L 21224.07760627 .00000966 00000-0 44113-4 0 9996
2 42775 97.2429 268.3341 0012870 346.4569 13.6321 15.22840941229669
URSA MAIOR
1 42776U 17036M 21224.13583961 .00001066 00000-0 47971-4 0 9995
2 42776 97.2443 268.8889 0012613 345.6803 14.4075 15.23121146229693
Max Valier Sat
1 42778U 17036P 21224.58432771 .00001178 00000-0 51705-4 0 9992
2 42778 97.2509 271.3477 0011132 347.2720 12.8235 15.23803696229834
Pegasus
1 42784U 17036V 21224.35834520 .00001493 00000-0 63171-4 0 9992
2 42784 97.2462 271.6350 0010861 351.3032 8.8016 15.24666283229878
NUDATSat
1 42787U 17036Y 21224.61917389 .00002883 00000-0 11226-3 0 9996
2 42787 97.2506 274.4856 0010432 344.5824 15.5094 15.26737446229906
SUCHAI 1
1 42788U 17036Z 21224.58989571 .00001777 00000-0 72852-4 0 9999
2 42788 97.2472 272.9232 0010173 347.4891 12.6093 15.25506251230049
SKCUBE
1 42789U 17036AA 21224.43233693 .00001655 00000-0 68610-4 0 9993
2 42789 97.2467 272.4553 0010170 349.0281 11.0734 15.25220471229920
VZLUSAT 1
1 42790U 17036AB 21224.41759749 .00002157 00000-0 84760-4 0 9990
2 42790 97.2494 274.2777 0009278 344.3307 15.7644 15.26702574230028
VENTA 1
1 42791U 17036AC 21224.41569082 .00001527 00000-0 63650-4 0 9995
2 42791 97.2463 272.4463 0009915 349.9487 10.1552 15.25148624229917
